Stations météo

réclame
Mon MeteoGroup
Rotterdam Zestienhoven, Pays-Bas (6344): Température de l'air & dewpoint: 15.01.2019 17:00:00 - 21.01.2019 17:00:00 (CET)Rotterdam Zestienhoven, Pays-Bas (6344): Température de l'air 5cm: 15.01.2019 17:00:00 - 21.01.2019 17:00:00 (CET)Rotterdam Zestienhoven, Pays-Bas (6344): Vitesse du vent & gusts: 15.01.2019 17:00:00 - 21.01.2019 17:00:00 (CET)Rotterdam Zestienhoven, Pays-Bas (6344): Direction du vent: 15.01.2019 17:00:00 - 21.01.2019 17:00:00 (CET)Rotterdam Zestienhoven, Pays-Bas (6344): reduced air pressure: 15.01.2019 17:00:00 - 21.01.2019 17:00:00 (CET)Rotterdam Zestienhoven, Pays-Bas (6344): visibility: 15.01.2019 17:00:00 - 21.01.2019 17:00:00 (CET)Rotterdam Zestienhoven, Pays-Bas (6344): Quantités de précipitations: 15.01.2019 17:00:00 - 21.01.2019 17:00:00 (CET)
Date & Time tt [°C] td [°C] tt 5cm [°C] ff [km/h] ff [knt] fx [km/h] fx [knt] dd ppp [hPa] vv [km] rr [mm]
21.01.2019 17:00:00 1,8 0,5 0,1 9 5 18 10 SW 1019,9 9 0,0
21.01.2019 16:00:00 4,5 1,6 4,0 11 6 18 10 SW 1020,5 10 0,0
21.01.2019 15:00:00 4,8 1,1 4,8 13 7 22 12 WSW 1020,9 10 0,0
21.01.2019 14:00:00 4,7 1,4 4,8 13 7 18 10 SW 1021,7 10 0,0
21.01.2019 13:00:00 5,0 1,5 5,3 15 8 18 10 SW 1022,3 10 0,0
21.01.2019 12:00:00 3,8 0,5 4,1 8 4 11 6 SSW 1023,0 10 0,0
21.01.2019 11:00:00 1,8 -0,3 1,0 8 4 7 4 S 1023,4 10 0,0
21.01.2019 10:00:00 -2,9 -2,9 -3,6 2 1 7 4 S 1023,4 10 0,0
21.01.2019 09:00:00 -5,4 -5,7 -8,5 2 1 7 4 S 1023,5 8 0,0
21.01.2019 08:00:00 -5,8 -6,7 -8,8 4 2 7 4 - 1023,5 8 0,0
21.01.2019 07:00:00 -6,3 -6,4 -8,9 2 1 4 2 - 1023,2 8 0,0
21.01.2019 06:00:00 -6,8 -6,9 -8,7 2 1 4 2 S 1022,9 10 0,0
21.01.2019 05:00:00 -6,5 -7,4 -8,9 2 1 7 4 - 1023,3 9 0,0
21.01.2019 04:00:00 -5,9 -6,7 -9,0 8 4 11 6 SSE 1023,2 10 0,0
21.01.2019 03:00:00 -7,1 -7,6 -8,9 4 2 7 4 - 1023,8 7 0,0
21.01.2019 02:00:00 -5,8 -6,9 -8,5 4 2 7 4 WNW 1023,6 6 0,0
21.01.2019 01:00:00 -6,1 -6,3 -8,4 0 0 7 4 N 1023,5 9 0,0
21.01.2019 00:00:00 -5,5 -6,4 -8,1 4 2 7 4 - 1023,0 10 0,0
20.01.2019 23:00:00 -4,9 -5,5 -7,8 2 1 4 2 - 1022,5 10 0,0
20.01.2019 22:00:00 -3,1 -4,8 -6,4 2 1 7 4 ESE 1022,2 10 0,0
20.01.2019 21:00:00 -3,2 -5,0 -5,7 4 2 7 4 NNE 1022,0 10 0,0
20.01.2019 20:00:00 -2,8 -4,9 -6,9 5 3 7 4 NE 1021,5 10 0,0
20.01.2019 19:00:00 -2,3 -5,2 -6,1 4 2 11 6 NNE 1020,7 10 0,0
20.01.2019 18:00:00 -1,4 -6,0 -5,3 4 2 7 4 NE 1019,9 10 0,0
20.01.2019 17:00:00 0,6 -5,7 -2,5 9 5 14 8 ENE 1019,4 10 0,0
20.01.2019 16:00:00 1,2 -4,4 0,6 9 5 18 10 ENE 1018,9 10 0,0
20.01.2019 15:00:00 2,2 -5,9 2,3 13 7 18 10 ENE 1018,6 10 0,0
20.01.2019 14:00:00 1,9 -5,1 2,4 11 6 14 8 NE 1018,6 10 0,0
20.01.2019 13:00:00 1,5 -4,7 2,1 8 4 14 8 ENE 1018,5 10 0,0
20.01.2019 12:00:00 0,4 -5,1 0,9 9 5 14 8 E 1018,4 10 0,0
20.01.2019 11:00:00 -1,2 -5,5 -0,9 11 6 18 10 E 1017,8 10 0,0
20.01.2019 10:00:00 -2,7 -5,7 -3,8 8 4 11 6 E 1017,2 10 0,0
20.01.2019 09:00:00 -5,7 -7,7 -8,3 8 4 11 6 E 1016,6 10 0,0
20.01.2019 08:00:00 -5,3 -6,8 -8,1 8 4 11 6 ENE 1015,7 10 0,0
20.01.2019 07:00:00 -5,5 -7,3 -7,8 8 4 14 8 E 1015,0 10 0,0
20.01.2019 06:00:00 -6,1 -7,5 -8,1 11 6 14 8 E 1014,7 10 0,0
20.01.2019 05:00:00 -3,5 -5,5 -7,4 8 4 11 6 E 1014,5 10 0,0
20.01.2019 04:00:00 -3,4 -5,5 -5,0 8 4 14 8 E 1014,4 10 0,0
20.01.2019 03:00:00 -3,0 -5,2 -4,6 9 5 14 8 E 1014,3 10 0,0
20.01.2019 02:00:00 -2,7 -4,9 -4,1 8 4 14 8 E 1014,1 10 0,0
20.01.2019 01:00:00 -2,5 -4,6 -4,0 9 5 14 8 E 1014,3 10 0,0
20.01.2019 00:00:00 -1,9 -4,2 -3,5 9 5 18 10 E 1014,1 10 0,0
19.01.2019 23:00:00 -1,4 -3,9 -2,6 11 6 18 10 E 1013,8 10 0,0
19.01.2019 22:00:00 -1,0 -3,6 -2,4 13 7 18 10 E 1013,7 10 0,0
19.01.2019 21:00:00 -1,2 -3,6 -2,8 11 6 14 8 E 1013,6 10 0,0
19.01.2019 20:00:00 -0,9 -3,2 -2,1 11 6 18 10 E 1013,5 10 0,0
19.01.2019 19:00:00 0,2 -2,7 -1,2 13 7 18 10 ESE 1013,4 10 0,0
19.01.2019 18:00:00 0,8 -2,6 -0,8 13 7 22 12 E 1013,4 10 0,0
19.01.2019 17:00:00 1,1 -2,2 0,0 15 8 25 14 E 1013,4 10 0,0
19.01.2019 16:00:00 2,1 -2,1 1,4 16 9 25 14 E 1013,3 10 0,0
19.01.2019 15:00:00 2,7 -1,6 2,8 15 8 25 14 ESE 1013,8 10 0,0
19.01.2019 14:00:00 3,1 -2,4 3,6 16 9 25 14 SE 1014,5 10 0,0
19.01.2019 13:00:00 2,7 -2,3 3,4 15 8 25 14 SE 1015,1 10 0,0
19.01.2019 12:00:00 1,9 -2,6 2,3 16 9 29 16 SE 1015,8 10 0,0
19.01.2019 11:00:00 0,7 -2,6 0,9 11 6 22 12 SE 1016,1 10 0,0
19.01.2019 10:00:00 -0,8 -2,7 -1,9 11 6 18 10 ESE 1016,2 10 0,0
19.01.2019 09:00:00 -1,8 -3,5 -3,1 9 5 14 8 ESE 1016,1 10 0,0
19.01.2019 08:00:00 -1,3 -3,0 -2,5 11 6 18 10 ESE 1016,2 8 0,0
19.01.2019 07:00:00 -1,2 -2,6 -2,4 9 5 14 8 ESE 1016,3 5 0,0
19.01.2019 06:00:00 -1,3 -2,1 -2,3 9 5 14 8 ESE 1016,7 4,6 0,0
19.01.2019 05:00:00 -1,1 -1,9 -2,2 5 3 18 10 SE 1017,0 3,9 0,0
19.01.2019 04:00:00 -1,1 -1,6 -1,9 13 7 18 10 SSE 1017,4 3,1 0,0
19.01.2019 03:00:00 -0,8 -1,1 -0,7 13 7 18 10 SSE 1018,0 2,7 0,0
19.01.2019 02:00:00 -0,6 -0,7 -0,4 13 7 18 10 SSE 1018,2 2,6 0,0
19.01.2019 01:00:00 -0,3 -0,4 -0,3 11 6 18 10 SSE 1018,5 2,0 0,0
19.01.2019 00:00:00 -0,4 -0,5 -0,3 13 7 18 10 SSE 1018,9 1,7 0,0
18.01.2019 23:00:00 -0,5 -0,8 -0,7 13 7 18 10 SSE 1018,8 2,5 0,0
18.01.2019 22:00:00 -1,5 -1,9 -2,6 11 6 18 10 SSE 1019,0 5 0,0
18.01.2019 21:00:00 -0,9 -1,7 -2,1 8 4 14 8 SSE 1018,8 9 0,0
18.01.2019 20:00:00 -0,1 -1,1 -2,0 8 4 14 8 SSE 1018,9 8 0,0
18.01.2019 19:00:00 1,1 -0,9 -0,5 9 5 14 8 SSE 1019,0 10 0,0
18.01.2019 18:00:00 1,7 -0,6 -0,7 11 6 25 14 SSE 1019,0 10 0,0
18.01.2019 17:00:00 2,5 -0,4 0,9 9 5 25 14 SSE 1019,2 10 0,0
18.01.2019 16:00:00 3,8 0,3 3,1 9 5 25 14 S 1019,3 10 0,0
18.01.2019 15:00:00 4,2 0,5 4,1 11 6 22 12 S 1019,3 10 0,0
18.01.2019 14:00:00 4,0 0,4 3,5 13 7 22 12 S 1019,6 10 0,0
18.01.2019 13:00:00 3,8 0,0 3,3 16 9 22 12 S 1019,9 10 0,0
18.01.2019 12:00:00 3,9 0,7 3,7 13 7 18 10 S 1020,0 10 0,0
18.01.2019 11:00:00 2,6 1,1 0,8 11 6 25 14 SSE 1020,0 10 0,0
18.01.2019 10:00:00 0,5 -0,7 -2,5 8 4 11 6 SSE 1019,7 10 0,0
18.01.2019 09:00:00 -2,5 -2,6 -6,2 5 3 7 4 SSE 1019,2 10 0,0
18.01.2019 08:00:00 -2,8 -2,8 -6,1 4 2 11 6 - 1018,5 10 0,0
18.01.2019 07:00:00 -2,3 -2,4 -5,7 2 1 4 2 SSW 1018,3 10 0,0
18.01.2019 06:00:00 -2,3 -2,3 -5,2 4 2 4 2 S 1017,9 9 0,0
18.01.2019 05:00:00 -1,8 -1,9 -4,6 4 2 4 2 S 1017,5 10 0,0
18.01.2019 04:00:00 -1,7 -2,1 -4,7 2 1 7 4 - 1017,0 10 0,0
18.01.2019 03:00:00 -2,4 -3,2 -3,9 4 2 14 8 WNW 1016,7 10 0,0
18.01.2019 02:00:00 -1,2 -1,7 -3,3 8 4 11 6 W 1015,7 10 0,0
18.01.2019 01:00:00 -0,3 -1,1 -2,9 9 5 14 8 W 1015,1 10 0,0
18.01.2019 00:00:00 1,0 -0,5 -0,9 9 5 47 25 WNW 1014,4 10 0,1
17.01.2019 23:00:00 2,7 0,1 1,5 22 12 47 25 NNW 1014,2 10 0,0
17.01.2019 22:00:00 1,2 0,0 -0,9 9 5 36 19 NW 1012,6 10 0,3
17.01.2019 21:00:00 3,5 0,6 2,0 22 12 40 21 NW 1012,0 10 0,3
17.01.2019 20:00:00 2,4 0,6 0,9 18 10 36 19 WNW 1010,4 10 0,4
17.01.2019 19:00:00 1,9 -0,6 0,3 13 7 36 19 NW 1009,3 10 0,0
17.01.2019 18:00:00 3,0 0,8 0,9 13 7 25 14 NW 1008,3 10 0,0
17.01.2019 17:00:00 2,0 0,7 1,7 24 13 36 19 NNW 1006,9 9 0,7
17.01.2019 16:00:00 2,1 1,1 1,4 16 9 50 27 W 1005,1 10 1,6
17.01.2019 15:00:00 3,6 1,7 3,9 29 16 58 31 WNW 1004,9 10 0,2
17.01.2019 14:00:00 4,5 1,2 4,5 29 16 58 31 WNW 1004,4 10 0,0
17.01.2019 13:00:00 4,7 1,2 4,4 28 15 43 23 WNW 1003,6 10 0,0
17.01.2019 12:00:00 4,9 2,5 3,9 26 14 50 27 NW 1003,3 10 0,4
17.01.2019 11:00:00 4,4 3,0 4,2 22 12 47 25 NW 1002,4 5 0,6
17.01.2019 10:00:00 3,9 3,1 3,5 16 9 22 12 SW 1001,3 10 0,7
17.01.2019 09:00:00 3,4 2,7 3,2 22 12 36 19 WSW 1001,2 7 4,2
17.01.2019 08:00:00 4,6 4,1 4,6 21 11 36 19 SW 1000,9 10 0,0
17.01.2019 07:00:00 4,7 3,5 3,5 16 9 25 14 SW 1000,5 10 0,0
17.01.2019 06:00:00 4,5 3,1 2,9 18 10 25 14 SW 1000,9 10 0,0
17.01.2019 05:00:00 4,0 2,3 2,7 16 9 25 14 SW 1001,1 10 0,0
17.01.2019 04:00:00 4,6 3,0 3,6 15 8 25 14 WSW 1001,3 10 0,0
17.01.2019 03:00:00 5,6 3,7 4,4 16 9 29 16 WSW 1001,6 10 0,0
17.01.2019 02:00:00 5,3 4,2 4,6 16 9 25 14 WSW 1001,6 10 0,0
17.01.2019 01:00:00 4,9 3,6 3,9 15 8 25 14 SW 1001,3 10 0,0
17.01.2019 00:00:00 4,5 3,6 4,1 8 4 14 8 WSW 1001,4 10 0,3
16.01.2019 23:00:00 4,8 3,8 4,5 15 8 50 27 NNW 1001,3 10 1,0
16.01.2019 22:00:00 5,9 4,8 5,6 34 18 50 27 SSW 1000,4 4,0 0,1
16.01.2019 21:00:00 5,6 4,4 5,1 28 15 54 29 SSW 1000,5 10 0,5
16.01.2019 20:00:00 5,4 4,1 5,0 29 16 47 25 SSW 1001,0 8 0,4
16.01.2019 19:00:00 5,4 4,0 4,9 26 14 40 21 S 1001,8 10 1,0
16.01.2019 18:00:00 5,8 3,5 5,4 28 15 43 23 SSW 1002,5 10 0,0
16.01.2019 17:00:00 5,9 3,8 5,5 28 15 43 23 SSW 1003,5 10 0,0
16.01.2019 16:00:00 5,9 4,0 5,5 24 13 43 23 SSW 1003,9 10 0,2
16.01.2019 15:00:00 6,0 4,2 5,6 28 15 47 25 SSW 1004,6 10 0,2
16.01.2019 14:00:00 6,2 3,7 5,9 29 16 54 29 SSW 1005,8 10 0,0
16.01.2019 13:00:00 6,4 3,7 6,1 31 17 50 27 SSW 1006,6 10 0,0
16.01.2019 12:00:00 6,3 4,0 6,1 37 20 54 29 SSW 1007,8 10 0,0
16.01.2019 11:00:00 6,6 4,1 6,2 34 18 54 29 SSW 1008,4 10 0,0
16.01.2019 10:00:00 6,1 4,5 5,8 28 15 47 25 SSW 1009,1 10 0,0
16.01.2019 09:00:00 6,4 4,7 6,0 29 16 47 25 SSW 1009,4 10 0,0
16.01.2019 08:00:00 6,5 5,5 6,2 34 18 54 29 SW 1009,4 10 0,0
16.01.2019 07:00:00 6,7 5,8 6,5 31 17 54 29 SW 1009,8 9 0,0
16.01.2019 06:00:00 7,2 6,3 6,9 28 15 43 23 SW 1010,4 7 0,0
16.01.2019 05:00:00 7,5 6,6 7,2 26 14 40 21 SW 1011,1 10 0,0
16.01.2019 04:00:00 7,7 6,6 7,2 24 13 40 21 SW 1011,8 10 0,0
16.01.2019 03:00:00 8,1 5,8 7,6 26 14 47 25 SW 1012,4 10 0,0
16.01.2019 02:00:00 8,2 5,6 7,8 34 18 47 25 WSW 1012,7 10 0,0
16.01.2019 01:00:00 8,3 5,4 7,7 29 16 43 23 SW 1013,2 10 0,0
16.01.2019 00:00:00 8,1 5,6 7,7 28 15 47 25 WSW 1013,7 10 0,0
15.01.2019 23:00:00 8,1 5,9 7,6 24 13 47 25 SW 1014,2 10 0,0
15.01.2019 22:00:00 8,0 6,1 7,7 28 15 40 21 WSW 1014,6 10 0,0
15.01.2019 21:00:00 8,0 5,8 7,5 26 14 40 21 WSW 1015,0 10 0,0
15.01.2019 20:00:00 7,9 5,8 7,5 24 13 40 21 WSW 1015,4 10 0,0
15.01.2019 19:00:00 7,9 5,7 7,5 26 14 43 23 WSW 1015,6 10 0,0
15.01.2019 18:00:00 8,0 5,3 7,5 26 14 40 21 WSW 1015,7 10 0,0
15.01.2019 17:00:00 8,0 5,4 7,5 28 15 40 21 WSW 1016,0 10 0,0

tt = Température de l'air
td = dewpoint
tt 5cm = Température de l'air 5cm
ff = Vitesse du vent
fx = gusts
dd = Direction du vent
ppp = reduced air pressure
vv = visibility
rr = Quantités de précipitations

stations d'obs. à proximité